Temp
22 24 24 25 26 24 22 19 20 23 20 22 21 21 22 24 24 23 23 22 22 21 21 20 20 20 19 19 19 20 19 18 18 17 20 19 19 18 19 19 20 20 19 19
25 25 24 24 24 25 24 23 22 21 21 23 23 22 22 22 23 23 23 23 22 22 21 20 19 19 19 19 18 17 18 17 17 18 19 20 19 19 19 19 19 19 20 19
21 22 22 21 22 24 24 24 23 22 22 21 20 21 22 23 24 24 23 22 22 21 21 20 19 18 18 18 17 17 17 17 17 18 19 19 19 19 20 19 19 19 19 19
18 21 21 20 22 24 24 24 24 24 22 22 23 25 26 24 24 24 24 23 22 21 20 19 19 18 17 18 17 17 17 18 18 18 19 18 19 19 19 19 20 19 20 19
18 17 20 23 22 22 23 23 25 24 24 24 23 22 22 24 25 24 23 23 22 22 20 19 18 18 17 17 17 17 17 17 17 18 18 18 18 19 19 19 19 19 20 19
16 19 19 20 23 24 22 20 22 23 21 22 22 20 18 24 25 23 23 22 22 21 20 19 19 17 17 17 17 17 17 17 17 16 17 17 17 17 18 18 18 18 18 18
19 18 19 21 22 24 20 20 21 24 23 23 22 24 26 24 24 24 22 21 21 21 20 19 18 18 17 17 17 16 16 16 16 17 17 17 17 17 17 17 17 17 18 18
17 17 18 21 21 21 19 22 24 24 22 21 26 25 25 24 23 22 21 21 21 20 20 20 19 18 17 17 16 16 16 16 16 16 17 17 17 17 17 17 18 18 18 18
14 15 16 17 18 19 20 23 22 21 21 21 22 23 23 22 22 22 21 21 21 20 19 19 19 19 18 17 16 16 15 15 15 15 16 17 18 18 18 18 17 17 17 17
14 14 16 18 19 19 19 19 19 21 20 21 20 20 22 22 22 21 21 21 21 20 19 19 18 18 18 17 17 16 14 14 15 15 15 16 16 17 17 16 16 16 15 14
12 14 16 18 19 20 20 20 20 21 21 21 20 19 18 22 22 21 21 21 20 20 19 19 18 17 17 17 16 16 15 14 14 15 15 16 16 16 16 16 16 16 15 15
13 15 16 17 18 18 19 19 19 18 21 21 21 20 19 19 22 22 21 21 20 20 19 18 17 17 17 17 16 16 15 14 14 15 15 15 16 16 16 16 15 15 15 14
16 17 17 17 17 18 16 18 18 18 21 21 21 18 20 18 21 22 21 21 20 20 19 18 18 18 17 17 17 16 15 15 13 13 14 13 14 15 15 14 14 14 14 14
17 17 16 18 16 17 17 17 19 18 19 20 21 21 21 21 21 21 21 21 20 20 19 18 18 18 17 17 16 15 15 14 12 13 13 13 13 13 14 14 13 13 13 13
17 17 17 16 16 15 17 17 18 19 19 17 16 16 17 20 20 21 21 20 20 19 18 18 18 17 17 16 15 15 14 14 14 14 14 13 13 12 13 13 13 13 13 13
17 16 16 15 15 15 15 16 18 19 17 16 18 18 18 19 19 20 19 19 19 18 18 18 18 17 16 16 15 14 14 13 13 13 13 13 12 12 12 12 12 12 13 13
16 16 16 16 17 17 16 16 17 16 16 17 17 16 16 19 20 19 19 18 18 18 18 17 17 16 16 15 15 14 14 13 13 12 11 12 12 12 11 11 11 11 11 11
15 16 16 15 17 17 17 17 16 16 17 16 17 18 18 20 19 19 18 18 18 17 17 17 16 16 15 15 14 14 14 13 13 13 12 11 11 11 11 11 11 11 11 11
16 16 17 17 18 18 17 16 17 17 17 17 16 16 16 19 19 19 18 18 17 17 16 16 16 15 15 15 14 14 14 14 14 14 14 13 13 13 12 12 12 12 12 12
14 15 15 17 17 17 18 18 17 16 17 17 17 16 17 19 19 18 18 17 17 17 16 16 16 16 15 15 14 14 14 13 13 14 14 14 14 14 14 14 14 14 14 13
15 15 14 15 17 17 17 16 16 16 16 19 17 17 18 19 18 18 17 17 16 16 16 16 16 16 15 15 14 14 13 13 14 14 14 14 15 14 14 14 14 14 14 14
15 15 15 14 17 17 17 16 17 17 17 17 17 16 19 18 18 18 17 17 17 16 16 16 16 15 15 14 14 14 14 14 14 14 16 15 15 15 15 15 15 15 14 14
14 14 14 14 14 15 17 17 17 16 16 16 17 19 19 19 18 17 17 17 17 16 17 16 16 15 15 14 14 14 14 14 15 15 16 16 16 15 15 15 15 15 15 15
15 15 14 15 14 15 15 15 17 15 16 18 18 19 19 18 18 17 17 17 17 17 17 16 16 15 15 15 14 14 14 14 14 15 15 15 15 16 15 15 15 15 15 15
14 16 15 15 14 14 14 15 15 16 17 19 19 19 18 18 18 18 17 17 17 17 17 16 16 15 15 15 15 15 15 14 15 15 15 15 16 15 16 16 16 15 15 15
14 14 15 16 15 15 16 16 16 16 16 16 17 17 17 17 17 17 17 17 18 17 17 17 17 16 15 15 14 14 14 14 15 15 15 15 15 15 15 16 16 16 16 16
14 15 15 14 13 13 14 14 15 14 15 15 14 15 17 17 17 16 17 17 18 18 18 17 17 16 15 15 15 14 14 14 14 14 15 15 15 15 15 15 15 15 16 15
Height
1462 1458 1459 1459 1461 1468 1479 1485 1495 1484 1492 1476 1471 1470 1473 1477 1483 1487 1492 1496 1498 1501 1504 1506 1506 1506 1507 1510 1511 1512 1513 1515 1518 1524 1525 1527 1529 1531 1535 1538 1540 1542 1545 1547
1460 1455 1457 1462 1458 1459 1464 1470 1475 1479 1484 1468 1472 1471 1473 1475 1479 1482 1490 1495 1498 1500 1501 1504 1506 1504 1506 1506 1507 1510 1512 1514 1516 1516 1519 1522 1525 1527 1529 1531 1533 1536 1538 1540
1475 1461 1461 1476 1462 1458 1459 1459 1466 1478 1468 1463 1469 1470 1467 1471 1473 1477 1485 1492 1496 1499 1501 1503 1503 1503 1503 1504 1505 1506 1507 1507 1507 1507 1511 1515 1518 1521 1523 1525 1528 1530 1532 1534
1480 1466 1487 1461 1446 1445 1454 1454 1455 1455 1456 1454 1452 1456 1461 1467 1472 1477 1482 1489 1494 1498 1500 1500 1501 1502 1503 1502 1503 1504 1503 1503 1504 1504 1504 1508 1510 1514 1516 1518 1521 1523 1526 1526
1481 1485 1468 1453 1450 1451 1454 1454 1448 1449 1445 1442 1449 1457 1462 1467 1471 1474 1480 1486 1492 1496 1499 1500 1500 1501 1502 1503 1503 1503 1502 1501 1501 1502 1504 1507 1502 1508 1507 1510 1514 1516 1519 1521
1484 1484 1485 1457 1440 1439 1445 1467 1447 1449 1448 1444 1452 1466 1461 1463 1469 1474 1478 1482 1487 1493 1496 1498 1499 1499 1500 1501 1501 1501 1502 1502 1502 1503 1505 1505 1505 1505 1505 1506 1509 1510 1512 1514
1466 1478 1470 1451 1447 1442 1467 1467 1450 1450 1452 1452 1450 1445 1448 1459 1466 1471 1476 1482 1486 1489 1493 1495 1498 1499 1499 1499 1499 1499 1498 1499 1500 1501 1502 1501 1500 1500 1501 1501 1497 1501 1505 1506
1466 1473 1477 1453 1455 1455 1448 1443 1444 1447 1451 1452 1443 1444 1450 1458 1464 1469 1475 1480 1485 1488 1492 1493 1494 1497 1497 1497 1497 1497 1497 1498 1498 1498 1497 1496 1495 1494 1495 1497 1497 1498 1500 1500
1469 1466 1454 1454 1454 1449 1443 1442 1451 1451 1447 1445 1446 1444 1449 1457 1464 1470 1475 1480 1483 1488 1492 1494 1494 1494 1495 1495 1495 1495 1495 1496 1496 1495 1494 1493 1492 1492 1493 1493 1494 1493 1493 1493
1462 1460 1454 1450 1447 1446 1447 1450 1449 1446 1448 1449 1451 1450 1451 1457 1463 1468 1475 1480 1483 1487 1490 1492 1493 1493 1493 1493 1492 1490 1491 1492 1493 1493 1492 1491 1490 1491 1490 1490 1489 1489 1488 1488
1460 1452 1450 1448 1448 1444 1445 1448 1444 1444 1447 1451 1454 1454 1462 1457 1462 1468 1472 1477 1481 1484 1486 1489 1491 1492 1492 1492 1493 1492 1490 1490 1491 1491 1491 1491 1492 1491 1490 1489 1488 1487 1485 1484
1457 1449 1449 1449 1449 1445 1445 1451 1447 1447 1446 1450 1455 1454 1462 1470 1463 1467 1471 1476 1479 1481 1483 1486 1488 1490 1490 1490 1490 1490 1490 1488 1489 1490 1490 1491 1491 1491 1489 1488 1487 1486 1485 1485
1446 1446 1445 1445 1445 1445 1445 1450 1446 1444 1442 1447 1449 1457 1462 1468 1467 1465 1470 1473 1476 1478 1480 1482 1485 1486 1487 1487 1486 1486 1486 1486 1487 1489 1489 1490 1490 1490 1490 1489 1488 1488 1488 1487
1442 1442 1441 1440 1440 1442 1443 1446 1446 1444 1446 1443 1445 1447 1454 1463 1464 1465 1467 1469 1473 1475 1477 1479 1481 1483 1484 1485 1484 1484 1483 1482 1483 1485 1487 1488 1488 1489 1489 1490 1490 1490 1490 1489
1437 1437 1436 1436 1435 1438 1438 1440 1441 1441 1441 1443 1447 1449 1452 1457 1462 1465 1466 1468 1472 1473 1475 1476 1477 1480 1481 1481 1481 1481 1481 1481 1482 1483 1484 1484 1485 1486 1487 1488 1488 1489 1489 1490
1434 1433 1433 1433 1434 1436 1436 1433 1433 1433 1440 1448 1446 1448 1451 1454 1463 1464 1464 1467 1468 1470 1471 1473 1475 1476 1478 1478 1477 1478 1479 1479 1480 1481 1482 1483 1484 1485 1485 1486 1488 1488 1488 1488
1431 1431 1431 1430 1431 1431 1433 1430 1430 1432 1438 1442 1444 1456 1456 1461 1461 1462 1463 1464 1466 1469 1470 1470 1471 1472 1474 1474 1474 1475 1477 1477 1478 1479 1480 1481 1482 1483 1484 1485 1485 1486 1488 1488
1429 1427 1427 1428 1426 1426 1427 1428 1429 1433 1439 1445 1447 1450 1452 1456 1459 1457 1461 1463 1465 1466 1467 1467 1468 1469 1471 1471 1472 1474 1476 1476 1476 1476 1477 1478 1479 1480 1481 1482 1481 1482 1483 1484
1425 1423 1422 1422 1422 1422 1424 1425 1428 1433 1432 1438 1446 1452 1450 1456 1456 1455 1459 1461 1462 1462 1464 1465 1466 1468 1469 1470 1471 1473 1475 1475 1476 1477 1477 1477 1477 1478 1479 1480 1480 1480 1481 1481
1423 1419 1417 1417 1419 1420 1421 1422 1426 1431 1431 1436 1444 1447 1449 1453 1454 1458 1457 1458 1459 1459 1460 1462 1465 1467 1468 1468 1469 1471 1472 1474 1475 1477 1477 1477 1478 1479 1480 1480 1481 1481 1481 1480
1417 1418 1414 1419 1417 1418 1419 1420 1423 1425 1431 1435 1439 1444 1448 1450 1453 1454 1455 1456 1456 1457 1459 1461 1462 1464 1465 1467 1467 1469 1471 1472 1474 1475 1476 1477 1478 1478 1478 1479 1480 1480 1481 1481
1419 1415 1414 1415 1415 1416 1418 1420 1421 1423 1426 1432 1437 1442 1444 1445 1446 1448 1451 1453 1452 1454 1457 1459 1460 1461 1462 1464 1464 1466 1468 1470 1472 1472 1472 1473 1475 1476 1476 1477 1479 1479 1479 1480
1417 1417 1417 1416 1419 1420 1417 1419 1420 1426 1429 1430 1433 1437 1438 1440 1442 1445 1448 1449 1451 1453 1455 1456 1457 1458 1459 1460 1461 1463 1465 1467 1468 1467 1468 1469 1471 1471 1473 1475 1476 1476 1477 1478
1419 1419 1415 1415 1413 1418 1421 1421 1424 1424 1425 1428 1430 1433 1435 1437 1440 1442 1443 1446 1448 1450 1452 1453 1454 1456 1456 1457 1459 1461 1463 1464 1465 1466 1467 1468 1469 1471 1471 1471 1472 1473 1474 1475
1421 1420 1418 1414 1419 1423 1422 1422 1425 1426 1425 1427 1429 1431 1433 1435 1435 1437 1440 1443 1445 1447 1447 1449 1451 1452 1453 1454 1456 1458 1459 1460 1461 1462 1463 1464 1463 1465 1467 1467 1469 1469 1470 1471
1424 1422 1420 1419 1419 1419 1418 1418 1419 1419 1422 1424 1426 1428 1430 1433 1434 1436 1437 1439 1440 1441 1443 1445 1446 1448 1450 1450 1452 1454 1455 1456 1456 1457 1458 1460 1460 1460 1462 1463 1464 1465 1465 1465
1425 1424 1423 1423 1421 1421 1419 1418 1417 1421 1424 1425 1429 1426 1426 1429 1431 1431 1433 1435 1435 1437 1439 1442 1443 1445 1446 1447 1448 1448 1450 1451 1452 1452 1453 1454 1456 1457 1458 1459 1459 1459 1460 1460
Wind_Speed
6 6 5 3 2 8 4 7 6 4 7 13 16 18 25 33 29 27 25 19 19 15 12 8 7 10 19 25 22 31 25 24 30 34 37 33 30 28 27 30 31 32 29 26
3 6 8 6 8 5 4 6 4 7 6 4 7 22 22 31 35 31 27 23 19 16 11 9 8 7 11 12 14 24 30 29 22 26 28 36 32 28 26 28 29 27 25 28
3 3 7 2 7 4 3 1 6 5 8 7 7 11 26 31 35 34 31 28 20 17 13 11 7 6 11 10 9 10 12 11 19 22 26 26 34 30 31 31 29 35 32 30
4 3 2 7 4 6 6 4 7 5 8 7 21 37 29 35 37 35 31 30 22 18 13 8 7 11 8 5 4 3 8 8 11 17 25 20 28 33 32 33 33 37 36 33
2 4 5 0 5 6 6 5 5 7 17 12 22 14 11 27 38 36 36 29 22 15 11 8 6 8 9 9 6 5 2 1 7 9 12 18 29 34 32 32 31 35 36 35
3 2 6 6 4 12 7 4 5 13 10 4 19 9 5 29 37 38 35 30 22 15 11 10 5 7 7 7 6 6 5 4 3 3 11 17 17 21 26 36 30 29 30 31
13 5 6 6 1 9 7 5 12 12 23 15 12 21 34 40 42 38 33 29 23 17 12 7 7 6 6 7 10 8 7 6 7 7 8 9 13 19 17 18 24 24 27 30
2 4 6 4 8 6 8 4 9 14 20 27 29 23 39 45 42 37 33 27 21 19 12 9 6 5 6 5 6 7 9 11 11 11 11 8 7 8 13 15 15 17 21 22
2 2 4 4 4 10 2 10 2 8 21 18 19 35 46 45 40 34 30 24 19 17 16 12 7 4 5 3 5 8 6 4 5 7 7 7 8 8 11 15 17 17 17 16
2 4 4 16 13 10 7 13 9 9 7 1 12 31 46 42 37 32 26 22 17 18 17 15 9 2 3 5 7 6 5 6 5 7 9 6 4 2 2 4 7 11 15 17
5 6 7 4 5 3 11 15 13 3 7 16 19 21 10 38 33 27 22 21 21 21 17 15 14 7 1 4 5 9 3 6 6 7 3 2 1 3 5 6 6 5 3 4
4 5 6 7 11 14 9 16 10 7 19 23 20 13 6 17 26 21 20 23 22 19 18 16 13 5 0 4 6 9 7 10 11 9 9 6 4 2 4 6 8 8 9 12
7 8 12 16 16 15 8 6 8 6 12 28 27 10 30 25 26 20 24 25 22 23 20 16 8 4 6 3 7 8 8 5 13 13 9 7 8 6 5 7 8 8 9 12
16 13 13 16 12 9 13 5 6 15 23 22 25 40 36 27 26 28 25 23 23 22 18 13 7 8 7 6 4 6 6 5 8 10 10 10 8 9 8 8 8 8 8 8
18 17 18 17 17 11 9 7 8 15 27 29 33 30 32 28 25 28 24 21 20 19 17 13 11 11 6 6 6 5 3 6 7 8 7 8 8 8 11 10 8 7 8 8
10 14 16 17 15 8 6 4 10 14 28 23 16 13 22 22 26 24 20 16 17 20 17 13 10 8 7 6 4 3 3 3 7 8 9 8 9 10 12 11 10 11 10 10
11 17 15 11 13 14 6 8 13 27 28 24 30 28 26 25 21 19 13 13 13 12 10 9 7 6 6 5 4 4 1 1 3 6 8 9 9 11 11 10 10 11 12 13
14 18 24 27 14 12 11 11 14 21 21 24 20 20 22 18 20 17 18 18 17 14 12 9 8 6 3 5 7 6 4 3 3 2 3 7 8 9 10 11 11 10 9 11
10 14 19 18 14 12 18 14 19 23 25 23 19 15 18 20 15 14 20 19 16 13 11 7 4 1 3 7 8 10 9 6 5 6 6 5 5 4 4 5 5 5 6 7
14 15 19 15 16 15 17 15 19 32 31 27 25 24 22 18 15 19 17 15 13 11 7 7 7 7 7 5 12 13 11 7 5 4 3 4 6 4 3 4 4 3 4 3
11 18 9 18 19 16 16 14 19 27 32 29 18 24 24 17 16 15 16 15 14 12 9 9 8 9 10 9 13 18 14 13 10 9 14 12 7 7 5 7 7 6 4 2
14 17 16 22 23 16 12 13 24 21 22 18 21 28 19 16 13 13 15 12 12 13 12 11 11 11 12 12 11 16 17 18 14 17 14 16 12 11 9 9 10 9 7 9
6 12 16 3 13 7 11 18 21 25 23 22 23 19 13 15 14 14 21 15 12 12 9 11 13 11 8 12 12 12 10 12 14 12 17 11 6 9 13 12 11 10 9 9
23 17 18 10 13 10 21 24 23 16 14 23 21 12 14 17 18 13 9 11 12 13 12 11 11 10 6 3 11 14 14 12 11 4 4 18 19 14 11 16 14 16 15 13
18 15 13 15 0 8 2 5 9 8 10 12 14 19 18 16 17 12 13 14 16 18 19 15 13 14 16 14 13 11 15 16 16 16 14 9 16 23 17 14 14 19 21 23
17 10 10 9 2 9 5 1 5 4 2 2 11 15 14 15 15 16 15 15 13 19 19 16 15 17 15 16 18 18 17 16 18 23 22 17 10 12 24 24 22 19 15 18
15 12 13 6 6 4 4 7 11 7 2 11 4 11 12 13 12 13 14 14 11 10 14 11 9 9 10 9 10 14 17 18 16 16 19 24 23 18 17 16 16 18 18 18
Wind_Direction
183 209 151 166 247 152 149 170 134 209 208 194 182 168 169 160 158 153 147 157 162 168 170 180 206 202 211 221 237 234 215 225 257 230 229 227 228 228 230 238 243 247 251 248
201 195 170 185 188 211 191 161 151 135 224 227 249 164 167 168 163 159 165 177 178 176 165 168 182 204 194 200 219 221 236 239 234 234 231 232 234 225 226 227 235 238 244 245
266 339 125 30 204 175 313 149 169 168 218 151 194 221 171 176 170 169 175 176 179 179 173 167 174 211 206 208 209 219 235 243 239 230 227 238 230 230 231 234 239 241 242 246
215 35 214 240 215 153 166 237 270 228 225 235 206 205 187 180 174 173 173 172 172 173 167 159 146 142 138 149 174 210 247 242 220 218 239 245 222 230 232 241 239 247 242 240
165 181 272 270 160 151 163 254 276 305 322 261 202 178 198 188 178 168 162 164 168 172 167 165 167 166 159 159 162 159 155 239 229 234 233 232 235 246 259 248 250 246 247 242
31 300 216 243 181 129 96 283 340 14 323 181 159 175 220 192 174 161 162 164 166 168 162 148 148 180 203 217 235 227 219 210 224 224 235 239 245 243 241 237 245 241 246 246
211 191 303 335 310 104 122 218 334 319 315 244 183 188 185 176 165 169 165 158 161 167 158 143 142 163 186 221 233 235 253 266 270 274 273 259 246 240 241 247 244 245 254 250
126 175 194 120 296 175 197 239 10 327 326 319 198 181 169 169 164 161 157 158 162 152 142 133 130 170 202 210 214 240 251 256 265 271 280 279 264 254 247 254 256 245 249 254
172 212 308 33 314 335 237 166 138 339 337 322 220 164 164 163 161 162 161 159 158 156 157 160 145 120 153 202 257 244 235 239 272 304 291 275 278 266 253 251 251 252 253 254
358 228 270 309 331 44 36 5 335 357 10 95 136 153 160 161 163 162 162 166 165 173 176 172 179 168 44 41 16 338 218 227 255 296 310 306 290 271 252 253 249 250 255 260
248 279 272 257 242 357 12 344 342 282 161 149 141 128 140 163 162 163 165 176 185 185 185 184 184 179 353 18 32 15 284 216 236 258 281 340 154 115 99 93 81 68 31 318
231 235 241 248 281 311 336 4 345 213 156 159 165 146 163 206 170 181 183 183 184 192 191 189 177 166 224 343 358 352 343 219 221 234 271 271 247 177 124 107 88 84 79 67
239 272 281 295 297 295 295 289 354 240 196 182 190 272 219 248 200 198 193 194 200 204 202 189 189 212 225 292 316 324 329 234 212 218 238 256 244 218 178 146 128 122 106 100
261 261 273 287 286 267 252 304 288 227 201 198 205 186 198 220 213 203 203 208 208 206 200 198 198 226 227 260 284 314 313 268 199 214 229 244 240 219 190 174 162 155 147 135
270 267 267 293 286 294 254 263 185 211 212 204 194 213 228 216 218 202 199 197 203 205 201 204 205 214 219 263 298 296 282 216 189 193 216 228 228 227 219 209 200 197 202 192
296 280 270 285 269 281 297 149 152 179 183 178 159 196 210 200 204 193 192 198 195 198 207 214 217 230 247 284 278 279 328 231 192 192 189 206 223 225 228 223 233 235 229 222
284 279 278 252 260 274 263 152 152 147 158 159 154 190 210 197 195 195 204 195 203 205 213 211 220 238 265 282 286 235 213 298 235 207 212 220 226 230 234 240 244 249 252 229
280 270 276 284 279 242 214 160 156 161 153 163 180 180 180 196 203 192 195 193 199 203 206 217 243 265 248 295 276 201 159 133 122 146 195 212 227 232 244 254 253 240 225 225
281 294 281 269 234 223 219 194 171 169 160 153 142 189 225 213 215 198 197 197 204 203 205 236 214 269 283 292 212 187 177 170 144 114 102 126 133 162 208 231 231 238 236 239
330 331 301 224 204 213 212 217 183 172 160 158 173 228 216 203 202 202 205 215 232 225 233 217 229 253 259 293 214 198 199 211 242 229 222 161 153 152 160 161 151 111 101 145
314 351 302 225 202 199 207 216 196 192 182 187 211 207 201 202 204 211 209 214 212 208 221 224 244 253 259 272 229 211 219 234 243 257 262 247 224 210 228 237 232 234 219 167
349 320 339 200 203 206 202 193 197 189 195 200 217 213 201 204 208 221 233 237 224 220 230 241 251 248 255 261 238 220 224 230 238 278 244 227 233 230 249 239 232 242 240 222
33 46 16 178 234 248 205 190 180 204 223 243 204 203 215 224 221 218 218 212 211 219 231 240 250 256 268 234 221 216 230 248 248 241 224 219 232 243 241 247 237 245 238 235
29 53 45 355 294 291 198 182 189 209 218 206 202 234 227 219 217 227 244 232 239 238 248 240 243 243 241 245 233 238 236 248 242 245 236 246 242 241 254 243 247 249 256 256
29 37 44 46 352 329 192 216 184 174 226 224 225 225 224 234 241 237 233 238 249 252 253 245 248 246 246 245 240 247 247 248 249 249 257 271 246 238 237 234 248 259 260 255
10 44 49 22 132 173 94 53 183 158 62 199 211 202 227 241 241 233 228 229 266 249 249 234 248 248 259 246 238 238 247 253 258 254 251 252 248 238 237 247 252 252 270 258
46 64 67 56 8 113 109 119 156 223 185 34 330 261 238 249 253 234 220 223 219 220 216 224 241 258 261 254 238 247 254 258 265 255 250 248 248 249 246 243 252 260 254 242